| time (UTC) | temp C | wind direction | speed KPH | gust KPH | rain 1hr cm | rain 24hr cm | rain mn cm | humidity % | barometer mb |
| 20260504031003 | 8 | 217 | 1.6 | 4.8 | 0.00 | 0.00 | 0.00 | 59 | 1015.3 |
| 20260504030503 | 8 | 214 | 1.6 | 4.8 | 0.00 | 0.00 | 0.00 | 58 | 1015.4 |
| 20260504030003 | 8 | 188 | 0.0 | 3.2 | 0.00 | 0.00 | 0.00 | 61 | 1015.2 |
| 20260504025718 | 8 | 188 | 1.6 | 3.2 | 0.00 | 0.00 | 0.00 | 60 | 1015.4 |
| 20260504025003 | 8 | 210 | 1.6 | 3.2 | 0.00 | 0.00 | 0.00 | 59 | 1015.6 |
| 20260504024503 | 9 | 213 | 1.6 | 3.2 | 0.00 | 0.00 | 0.00 | 56 | 1015.4 |
| 20260504024003 | 9 | 211 | 3.2 | 4.8 | 0.00 | 0.00 | 0.00 | 56 | 1015.7 |
| 20260504023503 | 8 | 208 | 1.6 | 8.0 | 0.00 | 0.00 | 0.00 | 57 | 1015.6 |
| 20260504023216 | 9 | 211 | 4.8 | 8.0 | 0.00 | 0.00 | 0.00 | 57 | 1015.7 |
| 20260504022718 | 9 | 0 | 0.0 | 0.0 | 0.00 | 0.00 | 0.00 | 57 | 1015.7 |
| 20260504022003 | 10 | 221 | 1.6 | 4.8 | 0.00 | 0.00 | 0.00 | 55 | 1015.6 |
| 20260504021503 | 9 | 216 | 0.0 | 3.2 | 0.00 | 0.00 | 0.00 | 55 | 1015.8 |
| 20260504021003 | 10 | 213 | 0.0 | 4.8 | 0.00 | 0.00 | 0.00 | 54 | 1015.7 |
| 20260504020503 | 10 | 213 | 3.2 | 4.8 | 0.00 | 0.00 | 0.00 | 53 | 1015.4 |
| 20260504020003 | 10 | 222 | 1.6 | 3.2 | 0.00 | 0.00 | 0.00 | 53 | 1015.6 |
| 20260504015503 | 10 | 222 | 1.6 | 3.2 | 0.00 | 0.00 | 0.00 | 53 | 1015.4 |
| 20260504015003 | 10 | 221 | 1.6 | 3.2 | 0.00 | 0.00 | 0.00 | 52 | 1015.7 |
| 20260504014503 | 10 | 215 | 1.6 | 3.2 | 0.00 | 0.00 | 0.00 | 52 | 1015.6 |
| 20260504014218 | 10 | 215 | 1.6 | 3.2 | 0.00 | 0.00 | 0.00 | 52 | 1015.7 |
| 20260504013503 | 10 | 219 | 3.2 | 4.8 | 0.00 | 0.00 | 0.00 | 51 | 1015.4 |
| 20260504013003 | 10 | 214 | 1.6 | 4.8 | 0.00 | 0.00 | 0.00 | 50 | 1015.3 |
| 20260504012717 | 10 | 219 | 3.2 | 4.8 | 0.00 | 0.00 | 0.00 | 50 | 1015.6 |
| 20260504012218 | 11 | 225 | 3.2 | 4.8 | 0.00 | 0.00 | 0.00 | 50 | 1015.6 |
| 20260504011717 | 11 | 223 | 3.2 | 4.8 | 0.00 | 0.00 | 0.00 | 49 | 1015.6 |
| 20260504011003 | 11 | 229 | 1.6 | 4.8 | 0.00 | 0.00 | 0.00 | 49 | 1015.6 |
| 20260504010503 | 11 | 228 | 3.2 | 4.8 | 0.00 | 0.00 | 0.00 | 48 | 1015.4 |
| 20260504010003 | 11 | 224 | 1.6 | 3.2 | 0.00 | 0.00 | 0.00 | 49 | 1015.6 |
| 20260504005717 | 11 | 219 | 1.6 | 3.2 | 0.00 | 0.00 | 0.00 | 49 | 1015.3 |
| 20260504005003 | 11 | 225 | 3.2 | 8.0 | 0.00 | 0.00 | 0.00 | 48 | 1015.4 |
| 20260504004503 | 11 | 227 | 3.2 | 4.8 | 0.00 | 0.00 | 0.00 | 48 | 1015.4 |
| 20260504004003 | 11 | 246 | 1.6 | 8.0 | 0.00 | 0.00 | 0.00 | 48 | 1015.3 |
| 20260504003503 | 11 | 220 | 3.2 | 12.9 | 0.00 | 0.00 | 0.00 | 47 | 1015.2 |
| 20260504003003 | 11 | 232 | 4.8 | 11.3 | 0.00 | 0.00 | 0.00 | 46 | 1015.3 |
| 20260504002503 | 12 | 240 | 3.2 | 19.3 | 0.00 | 0.00 | 0.00 | 46 | 1015.4 |
| 20260504002003 | 12 | 261 | 6.4 | 12.9 | 0.00 | 0.00 | 0.00 | 47 | 1015.3 |
| 20260504001503 | 12 | 272 | 9.7 | 19.3 | 0.00 | 0.00 | 0.00 | 46 | 1015.3 |
| 20260504001218 | 12 | 270 | 8.0 | 11.3 | 0.00 | 0.00 | 0.00 | 46 | 1015.4 |
| 20260504000503 | 12 | 254 | 3.2 | 12.9 | 0.00 | 0.00 | 0.00 | 46 | 1015.2 |
| 20260504000003 | 12 | 233 | 8.0 | 16.1 | 0.00 | 0.00 | 0.00 | 44 | 1015.1 |
| 20260503235503 | 12 | 233 | 4.8 | 8.0 | 0.00 | 0.00 | 0.00 | 45 | 1015.1 |
| 20260503235217 | 12 | 224 | 3.2 | 11.3 | 0.00 | 0.00 | 0.00 | 45 | 1015.2 |
| 20260503234716 | 12 | 240 | 11.3 | 16.1 | 0.00 | 0.00 | 0.00 | 44 | 1015.7 |
| 20260503234003 | 12 | 232 | 4.8 | 16.1 | 0.00 | 0.00 | 0.00 | 43 | 1015.0 |
| 20260503233504 | 13 | 258 | 9.7 | 19.3 | 0.00 | 0.00 | 0.00 | 43 | 1015.4 |
| 20260503233003 | 13 | 216 | 4.8 | 11.3 | 0.00 | 0.00 | 0.00 | 43 | 1015.3 |
| 20260503232503 | 13 | 236 | 8.0 | 19.3 | 0.00 | 0.00 | 0.00 | 43 | 1015.2 |
| 20260503232217 | 13 | 228 | 9.7 | 24.1 | 0.00 | 0.00 | 0.00 | 42 | 1015.3 |
| 20260503231503 | 13 | 239 | 12.9 | 22.5 | 0.00 | 0.00 | 0.00 | 42 | 1015.3 |
| 20260503231003 | 13 | 228 | 12.9 | 19.3 | 0.00 | 0.00 | 0.00 | 42 | 1015.3 |
| 20260503230503 | 13 | 218 | 4.8 | 38.6 | 0.00 | 0.00 | 0.00 | 43 | 1015.3 |
| 20260503230003 | 13 | 262 | 9.7 | 19.3 | 0.00 | 0.00 | 0.00 | 42 | 1015.4 |
| 20260503225503 | 13 | 229 | 14.5 | 27.4 | 0.00 | 0.00 | 0.00 | 42 | 1015.4 |
| 20260503225003 | 13 | 240 | 20.9 | 38.6 | 0.00 | 0.00 | 0.00 | 41 | 1015.3 |
| 20260503224503 | 13 | 221 | 9.7 | 33.8 | 0.00 | 0.00 | 0.00 | 41 | 1015.3 |
| 20260503224003 | 13 | 252 | 20.9 | 38.6 | 0.00 | 0.00 | 0.00 | 41 | 1015.7 |
| 20260503223503 | 13 | 206 | 12.9 | 30.6 | 0.00 | 0.00 | 0.00 | 42 | 1015.6 |
| 20260503223003 | 13 | 232 | 9.7 | 19.3 | 0.00 | 0.00 | 0.00 | 41 | 1015.6 |
| 20260503222503 | 13 | 245 | 4.8 | 22.5 | 0.00 | 0.00 | 0.00 | 41 | 1015.4 |
| 20260503222003 | 13 | 218 | 11.3 | 24.1 | 0.00 | 0.00 | 0.00 | 40 | 1015.4 |
| 20260503221503 | 14 | 271 | 16.1 | 30.6 | 0.00 | 0.00 | 0.00 | 40 | 1015.7 |
| 20260503221003 | 14 | 202 | 9.7 | 22.5 | 0.00 | 0.00 | 0.00 | 41 | 1015.7 |
| 20260503220503 | 13 | 211 | 16.1 | 27.4 | 0.00 | 0.00 | 0.00 | 41 | 1015.6 |
| 20260503220003 | 13 | 210 | 16.1 | 27.4 | 0.00 | 0.00 | 0.00 | 42 | 1015.7 |
| 20260503215504 | 14 | 266 | 17.7 | 27.4 | 0.00 | 0.00 | 0.00 | 39 | 1015.4 |
| 20260503215003 | 14 | 245 | 20.9 | 33.8 | 0.00 | 0.00 | 0.00 | 39 | 1015.4 |
| 20260503214503 | 14 | 264 | 6.4 | 16.1 | 0.00 | 0.00 | 0.00 | 40 | 1015.6 |
| 20260503214003 | 13 | 251 | 11.3 | 16.1 | 0.00 | 0.00 | 0.00 | 40 | 1015.6 |
| 20260503213503 | 13 | 208 | 17.7 | 30.6 | 0.00 | 0.00 | 0.00 | 41 | 1015.6 |
| 20260503213003 | 14 | 217 | 25.7 | 30.6 | 0.00 | 0.00 | 0.00 | 40 | 1015.1 |
| 20260503212718 | 14 | 207 | 14.5 | 24.1 | 0.00 | 0.00 | 0.00 | 41 | 1015.2 |
| 20260503212003 | 15 | 202 | 8.0 | 12.9 | 0.00 | 0.00 | 0.00 | 39 | 1015.3 |
| 20260503211718 | 14 | 209 | 11.3 | 16.1 | 0.00 | 0.00 | 0.00 | 40 | 1015.3 |
| 20260503211003 | 13 | 244 | 11.3 | 24.1 | 0.00 | 0.00 | 0.00 | 41 | 1015.3 |
| 20260503210503 | 14 | 221 | 22.5 | 35.4 | 0.00 | 0.00 | 0.00 | 42 | 1015.6 |
| 20260503210216 | 14 | 218 | 9.7 | 19.3 | 0.00 | 0.00 | 0.00 | 40 | 1015.4 |
| 20260503205503 | 14 | 225 | 11.3 | 43.5 | 0.00 | 0.00 | 0.00 | 39 | 1015.4 |
| 20260503205003 | 14 | 220 | 22.5 | 35.4 | 0.00 | 0.00 | 0.00 | 41 | 1015.6 |
| 20260503204503 | 13 | 240 | 12.9 | 27.4 | 0.00 | 0.00 | 0.00 | 41 | 1015.6 |
| 20260503204003 | 13 | 217 | 11.3 | 41.8 | 0.00 | 0.00 | 0.00 | 38 | 1015.7 |
| 20260503203504 | 15 | 223 | 14.5 | 19.3 | 0.00 | 0.00 | 0.00 | 40 | 1015.6 |
| 20260503203003 | 14 | 269 | 9.7 | 19.3 | 0.00 | 0.00 | 0.00 | 39 | 1016.1 |
| 20260503202717 | 14 | 260 | 11.3 | 22.5 | 0.00 | 0.00 | 0.00 | 40 | 1015.8 |
| 20260503202003 | 15 | 259 | 19.3 | 24.1 | 0.00 | 0.00 | 0.00 | 39 | 1015.9 |
| 20260503201503 | 14 | 240 | 9.7 | 16.1 | 0.00 | 0.00 | 0.00 | 42 | 1015.8 |
| 20260503201003 | 14 | 279 | 6.4 | 19.3 | 0.00 | 0.00 | 0.00 | 41 | 1016.1 |
| 20260503200503 | 13 | 230 | 17.7 | 24.1 | 0.00 | 0.00 | 0.00 | 41 | 1016.1 |
| 20260503200003 | 14 | 235 | 14.5 | 24.1 | 0.00 | 0.00 | 0.00 | 40 | 1016.2 |
| 20260503195717 | 14 | 225 | 12.9 | 24.1 | 0.00 | 0.00 | 0.00 | 41 | 1016.0 |
| 20260503195003 | 13 | 303 | 14.5 | 19.3 | 0.00 | 0.00 | 0.00 | 41 | 1016.2 |
| 20260503194503 | 15 | 205 | 17.7 | 24.1 | 0.00 | 0.00 | 0.00 | 40 | 1016.3 |
| 20260503194003 | 14 | 286 | 14.5 | 30.6 | 0.00 | 0.00 | 0.00 | 40 | 1016.4 |
| 20260503193503 | 14 | 173 | 6.4 | 19.3 | 0.00 | 0.00 | 0.00 | 38 | 1016.4 |
| 20260503193218 | 13 | 200 | 11.3 | 19.3 | 0.00 | 0.00 | 0.00 | 41 | 1016.4 |
| 20260503192503 | 13 | 237 | 17.7 | 30.6 | 0.00 | 0.00 | 0.00 | 43 | 1016.5 |
| 20260503192003 | 14 | 224 | 11.3 | 12.9 | 0.00 | 0.00 | 0.00 | 41 | 1016.6 |
| 20260503191503 | 14 | 240 | 8.0 | 30.6 | 0.00 | 0.00 | 0.00 | 41 | 1016.6 |
| 20260503191003 | 14 | 201 | 4.8 | 27.4 | 0.00 | 0.00 | 0.00 | 43 | 1016.7 |
| 20260503190503 | 13 | 240 | 19.3 | 33.8 | 0.00 | 0.00 | 0.00 | 40 | 1017.1 |
| 20260503190003 | 13 | 224 | 12.9 | 22.5 | 0.00 | 0.00 | 0.00 | 42 | 1017.1 |
| 20260503185503 | 13 | 300 | 14.5 | 30.6 | 0.00 | 0.00 | 0.00 | 42 | 1016.9 |
| 20260503185003 | 13 | 294 | 14.5 | 22.5 | 0.00 | 0.00 | 0.00 | 42 | 1016.9 |
| 20260503184503 | 13 | 251 | 14.5 | 22.5 | 0.00 | 0.00 | 0.00 | 42 | 1017.0 |
| 20260503184004 | 13 | 221 | 24.1 | 35.4 | 0.00 | 0.00 | 0.00 | 44 | 1017.2 |
| 20260503183716 | 12 | 274 | 11.3 | 30.6 | 0.00 | 0.00 | 0.00 | 44 | 1017.3 |
| 20260503183003 | 12 | 272 | 12.9 | 38.6 | 0.00 | 0.00 | 0.00 | 43 | 1017.3 |
| 20260503182503 | 13 | 298 | 17.7 | 24.1 | 0.00 | 0.00 | 0.00 | 40 | 1017.4 |
| 20260503182005 | 12 | 236 | 16.1 | 24.1 | 0.00 | 0.00 | 0.00 | 44 | 1017.4 |
| 20260503181504 | 12 | 252 | 17.7 | 30.6 | 0.00 | 0.00 | 0.00 | 44 | 1017.5 |
| 20260503181003 | 12 | 226 | 19.3 | 33.8 | 0.00 | 0.00 | 0.00 | 43 | 1017.5 |
| 20260503180503 | 13 | 224 | 16.1 | 35.4 | 0.00 | 0.00 | 0.00 | 41 | 1017.6 |
| 20260503180003 | 12 | 223 | 22.5 | 33.8 | 0.00 | 0.00 | 0.00 | 45 | 1017.6 |
| 20260503175503 | 13 | 220 | 11.3 | 24.1 | 0.00 | 0.00 | 0.00 | 41 | 1017.6 |
| 20260503175004 | 12 | 249 | 14.5 | 33.8 | 0.00 | 0.00 | 0.00 | 42 | 1017.7 |
| 20260503174718 | 12 | 269 | 12.9 | 33.8 | 0.00 | 0.00 | 0.00 | 42 | 1017.8 |
| 20260503174003 | 11 | 237 | 19.3 | 30.6 | 0.00 | 0.00 | 0.00 | 44 | 1017.7 |
| 20260503173503 | 11 | 263 | 16.1 | 33.8 | 0.00 | 0.00 | 0.00 | 46 | 1017.7 |
| 20260503173003 | 11 | 227 | 19.3 | 27.4 | 0.00 | 0.00 | 0.00 | 44 | 1017.9 |
| 20260503172503 | 12 | 205 | 19.3 | 35.4 | 0.00 | 0.00 | 0.00 | 45 | 1017.8 |
| 20260503172003 | 12 | 287 | 11.3 | 30.6 | 0.00 | 0.00 | 0.00 | 45 | 1017.8 |
| 20260503171718 | 11 | 261 | 17.7 | 30.6 | 0.00 | 0.00 | 0.00 | 43 | 1018.0 |
| 20260503171217 | 12 | 253 | 16.1 | 22.5 | 0.00 | 0.00 | 0.00 | 43 | 1018.2 |
| 20260503170718 | 12 | 287 | 6.4 | 27.4 | 0.00 | 0.00 | 0.00 | 42 | 1018.0 |
| 20260503151003 | 10 | 258 | 11.3 | 19.3 | 0.00 | 0.03 | 0.00 | 43 | 1019.0 |
| 20260503150717 | 10 | 201 | 9.7 | 38.6 | 0.00 | 0.03 | 0.00 | 46 | 1019.1 |
| 20260503131003 | 6 | 217 | 6.4 | 22.5 | 0.00 | 0.03 | 0.00 | 72 | 1019.6 |
| 20260503130503 | 6 | 247 | 9.7 | 22.5 | 0.00 | 0.03 | 0.00 | 72 | 1019.3 |
| 20260503130218 | 6 | 244 | 12.9 | 19.3 | 0.00 | 0.03 | 0.00 | 73 | 1019.4 |
| 20260503110503 | 0 | 206 | 3.2 | 8.0 | 0.00 | 0.03 | 0.00 | 97 | 1018.4 |
| 20260503110217 | 0 | 217 | 3.2 | 4.8 | 0.00 | 0.03 | 0.00 | 97 | 1018.5 |
| 20260503090503 | 0 | 206 | 0.0 | 3.2 | 0.00 | 0.03 | 0.00 | 96 | 1017.9 |
| 20260503081503 | 0 | 0 | 0.0 | 0.0 | 0.00 | 0.03 | 0.00 | 94 | 1018.0 |
| 20260503081003 | 0 | 0 | 0.0 | 0.0 | 0.00 | 0.03 | 0.00 | 94 | 1017.9 |
| 20260503080503 | 0 | 0 | 0.0 | 0.0 | 0.00 | 0.03 | 0.00 | 94 | 1017.8 |
| 20260503080217 | 0 | 0 | 0.0 | 0.0 | 0.00 | 0.03 | 0.00 | 94 | 1017.8 |
| 20260503072504 | 0 | 0 | 0.0 | 0.0 | 0.00 | 0.03 | 0.00 | 93 | 1017.9 |
| 20260503072003 | 0 | 200 | 1.6 | 3.2 | 0.00 | 0.03 | 0.00 | 93 | 1017.6 |
| 20260503071503 | 0 | 203 | 0.0 | 3.2 | 0.00 | 0.03 | 0.00 | 93 | 1017.7 |
| 20260503071004 | 0 | 203 | 1.6 | 3.2 | 0.00 | 0.03 | 0.00 | 93 | 1017.5 |
| 20260503070503 | 0 | 0 | 0.0 | 0.0 | 0.00 | 0.03 | 0.00 | 93 | 1017.5 |
| 20260503060217 | 1 | 258 | 1.6 | 3.2 | 0.00 | 0.03 | 0.00 | 89 | 1017.7 |
| 20260503055003 | 1 | 202 | 0.0 | 3.2 | 0.00 | 0.03 | 0.00 | 89 | 1017.7 |
| 20260503054503 | 1 | 242 | 0.0 | 3.2 | 0.00 | 0.03 | 0.00 | 89 | 1017.8 |
| 20260503054003 | 1 | 221 | 1.6 | 3.2 | 0.00 | 0.03 | 0.00 | 89 | 1017.8 |
| 20260503053718 | 1 | 0 | 0.0 | 0.0 | 0.00 | 0.03 | 0.00 | 90 | 1017.8 |
| 20260503053004 | 1 | 213 | 1.6 | 3.2 | 0.00 | 0.03 | 0.00 | 90 | 1017.8 |
| 20260503052503 | 1 | 207 | 0.0 | 3.2 | 0.00 | 0.03 | 0.00 | 90 | 1018.2 |
| 20260503052003 | 1 | 212 | 0.0 | 3.2 | 0.00 | 0.03 | 0.00 | 90 | 1018.2 |
| 20260503051718 | 1 | 191 | 1.6 | 3.2 | 0.00 | 0.03 | 0.00 | 89 | 1017.9 |
| 20260503051003 | 1 | 207 | 0.0 | 3.2 | 0.00 | 0.03 | 0.00 | 90 | 1018.0 |
| 20260503050503 | 1 | 0 | 0.0 | 0.0 | 0.00 | 0.03 | 0.00 | 90 | 1017.9 |
| 20260503050003 | 1 | 195 | 1.6 | 4.8 | 0.00 | 0.03 | 0.00 | 90 | 1018.0 |
| 20260503045503 | 1 | 186 | 0.0 | 3.2 | 0.00 | 0.03 | 0.00 | 91 | 1018.3 |
| 20260503045003 | 1 | 0 | 0.0 | 0.0 | 0.00 | 0.03 | 0.00 | 91 | 1018.0 |
| 20260503044503 | 1 | 0 | 0.0 | 0.0 | 0.00 | 0.03 | 0.00 | 91 | 1018.3 |
| 20260503044003 | 0 | 0 | 0.0 | 0.0 | 0.00 | 0.03 | 0.00 | 90 | 1018.4 |
| 20260503043717 | 1 | 0 | 0.0 | 0.0 | 0.00 | 0.03 | 0.00 | 89 | 1018.3 |
| 20260503043218 | 1 | 0 | 0.0 | 0.0 | 0.00 | 0.03 | 0.00 | 89 | 1018.2 |
| 20260503042503 | 1 | 0 | 0.0 | 0.0 | 0.00 | 0.03 | 0.00 | 89 | 1018.3 |
| 20260503042003 | 1 | 0 | 0.0 | 0.0 | 0.00 | 0.03 | 0.00 | 89 | 1018.0 |
| 20260503041503 | 0 | 0 | 0.0 | 0.0 | 0.00 | 0.03 | 0.00 | 89 | 1018.2 |
| 20260503041003 | 0 | 0 | 0.0 | 0.0 | 0.00 | 0.03 | 0.00 | 90 | 1018.3 |
| 20260503040503 | 0 | 185 | 0.0 | 3.2 | 0.00 | 0.03 | 0.00 | 89 | 1018.3 |
| 20260503040003 | 0 | 0 | 0.0 | 0.0 | 0.00 | 0.03 | 0.00 | 89 | 1018.2 |
| 20260503035503 | 1 | 0 | 0.0 | 0.0 | 0.00 | 0.03 | 0.03 | 88 | 1018.2 |
| 20260503035003 | 1 | 33 | 0.0 | 3.2 | 0.00 | 0.03 | 0.03 | 88 | 1018.3 |
| 20260503034717 | 1 | 30 | 1.6 | 4.8 | 0.00 | 0.03 | 0.03 | 88 | 1018.3 |
| 20260503034218 | 1 | 244 | 1.6 | 3.2 | 0.00 | 0.03 | 0.03 | 86 | 1018.4 |
| 20260503033504 | 1 | 243 | 1.6 | 3.2 | 0.00 | 0.03 | 0.03 | 85 | 1018.2 |
| 20260503033003 | 1 | 0 | 0.0 | 0.0 | 0.00 | 0.03 | 0.03 | 85 | 1018.3 |
| 20260503032503 | 1 | 0 | 0.0 | 0.0 | 0.00 | 0.03 | 0.03 | 86 | 1018.2 |
| 20260503032218 | 1 | 0 | 0.0 | 0.0 | 0.00 | 0.03 | 0.03 | 86 | 1018.2 |
| 20260503031503 | 1 | 243 | 1.6 | 3.2 | 0.00 | 0.03 | 0.03 | 87 | 1018.0 |